Flag for Paraguay Weather past 2 weeks in Asuncion, Paraguay

Now
75 °F

Passing clouds.


Feels Like: 76 °F
Forecast: 71 / 85 °F
Wind: 5 mph from Southeast

Location: Asuncion / Aeropuerto


UV Index: 0 (Low)

Visibility: N/A


Pressure: 29.83 "Hg

Humidity: 78%

Dew point: 68 °F

Location of AsuncionLocation

Historic Weather in Asuncion

°F

Asuncion temperature yesterday

Maximum temperature yesterday: 90 °F (at 2:00 PM)
Minimum temperature yesterday: 68 °F (at 10:00 PM)
Average temperature yesterday: 77 °F

Past Weeks' High & Low Weather Summary

 TemperatureHumidityPressure
High97 °F (Apr 7, 3:00 PM)100% (Apr 9, 10:00 AM)30.27 "Hg (Apr 9, 10:00 AM)
Low50 °F (Apr 14, 6:00 AM)34% (Apr 15, 2:00 PM)29.65 "Hg (Apr 8, 3:00 AM)
Average75 °F78%29.89 "Hg
* Reported Apr 3 4:00 PM — Apr 18 4:00 PM, Asuncion, Weather by CustomWeather, © 2014

Note: Actual official high and low records may vary slightly from our data, if they occured in-between our weather recording intervals... More about our weather records

Advertising

Historic Weather Conditions — Data for Previous 24 hours

 ConditionsComfort  
Time TempWeatherWind HumidityBarometerVisibility
4:00 PM
Apr 18
75 °FScattered clouds.5 mph78%29.83 "HgN/A
3:00 PM73 °FBroken clouds.7 mph83%29.80 "HgN/A
2:00 PM68 °FThunderstorms. Broken clouds.12 mph94%29.80 "HgN/A
1:00 PM68 °FThunderstorms. More clouds than sun.9 mph94%29.86 "HgN/A
12:00 PM68 °FThunderstorms. Mostly cloudy.12 mph94%29.86 "Hg6 mi
11:00 AM70 °FThunderstorms. Mostly cloudy.6 mph94%29.89 "HgN/A
10:00 AM70 °FThunderstorms. More clouds than sun.7 mph94%29.89 "HgN/A
9:30 AM70 °FThunderstorms. Cloudy.8 mph94%29.92 "HgN/A
9:00 AM70 °FThunderstorms. Cloudy.13 mph94%29.86 "Hg6 mi
8:30 AM68 °FThunderstorms. More clouds than sun.10 mph100%29.86 "Hg5 mi
8:00 AM68 °FThunderstorms. Overcast.15 mph100%29.89 "Hg5 mi
7:30 AM68 °FThunderstorms. Overcast.12 mph100%29.86 "Hg6 mi
7:00 AM68 °FThunderstorms. Overcast.15 mph100%29.86 "Hg3 mi
6:00 AM68 °FThunderstorms. More clouds than sun.9 mph100%29.86 "Hg4 mi
5:00 AM68 °FThunderstorms. Mostly cloudy.7 mph100%29.86 "Hg4 mi
4:00 AM68 °FThunderstorms. Mostly cloudy.9 mph100%29.80 "Hg6 mi
3:00 AM68 °FThunderstorms. Mostly cloudy.9 mph100%29.83 "HgN/A
2:00 AM70 °FThunderstorms. Mostly cloudy.10 mph100%29.83 "HgN/A
1:00 AM68 °FThunderstorms. Mostly cloudy.10 mph100%29.86 "Hg4 mi
12:00 AM68 °FThunderstorms. Mostly cloudy.10 mph100%29.86 "Hg5 mi
11:05 PM
Apr 17
70 °FThunderstorms. Mostly cloudy.21 mph94%29.92 "Hg3 mi
11:00 PM70 °FThunderstorms. Mostly cloudy.12 mph88%29.86 "HgN/A
10:00 PM68 °FThunderstorms. Partly cloudy.13 mph100%29.86 "HgN/A
9:05 PM72 °FThunderstorms. Mostly cloudy.12 mph100%29.86 "Hg6 mi
9:00 PM72 °FThunderstorms. Mostly cloudy.17 mph100%29.89 "HgN/A
8:00 PM72 °FThunderstorms. Mostly cloudy.20 mph100%29.89 "Hg4 mi
7:00 PM75 °FThunderstorms. Partly cloudy.16 mph89%29.80 "HgN/A
6:00 PM82 °FThunderstorms. Partly cloudy.3 mph79%29.80 "HgN/A
5:00 PM84 °FPartly cloudy.3 mph70%29.80 "HgN/A
Weather by CustomWeather, © 2014

See weather overview